GSAT-15

Last updated on Sun Apr 12 2026 00:02:54 GMT+0000 (Coordinated Universal Time)

1 41028U 15065A 26101.46850309 -.00000257 00000+0 00000+0 0 9990 2 41028 0.0145 157.2599 0003039 254.0435 50.5566 1.00273334 38138
UTC large
Height (km)
Speed (km/s)
/
Latitude / Longitude
Inclination (degrees)
Orbital Period (minutes)
Azimuth
Elevation
Range (km)
Doppler Factor

Next 0 passes for location: London (51.5072 / 0.1276)

Sorry there are no passes over London.
GSAT-15